STARLINK-5678, 55460

Orbit data source: Space-Track

STARLINK-5678, 55460 is a payload satellite owned by SpaceX/Seattle (US) in LEO that was launched on Thu, 02 Feb 2023 UTC via an FALCON 9 launch vehicle from the Air Force Eastern Test Range (AFETR). Payload-class satellites include a variety of spacecraft equipped with specific instruments for various scientific and technological missions. These include communications satellites like Starlink; space stations such as the ISS; scientific satellites like the Hubble; Earth observation satellites from companies like Planet Labs, Umbra, and HawkEye 360; GPS; miniature CubeSats for education and research; and military/defense satellites.

Loading next visibility...
Identifier
55460, 2023-015M
Orbit
LEO
Country
Flag of USUS
Related business
Manufacturer
SpaceX/Seattle
Mission
Operational Commercial Communications
Bus & Motor
STARLINK, Unknown motor
Mass
305 kg wet, ~290 kg dry
Launch date (UTC)
2023-02-02 (3 years ago)
Launch vehicle
FALCON 9
Launch site
Air Force Eastern Test Range (AFETR)
Object type
Payload
Rocket body
Debris
Shape & HBR
Box + 1 Pan, 10.1 m
Radar Cross Section
13.562 m², Large (>1 m²)

Expand to show TLE details & history
Last TLE update: 1 day ago

TLE from 1 day ago
0 STARLINK-5678
1 55460U 23015M   25301.46985690  .00000555  00000-0  56158-4 0  9993
2 55460  43.0050 324.5288 0001208 270.8252  89.2452 15.02540107150868
Epoch: 2025-10-28T11:16Z
TLE epoch observation values (Epoch: 2025-10-28T11:16:35.636Z)
Latitude
-0°
Longitude
118.32342°
Altitude
558.834 km
Speed
7.584 km/s
True Right ascension
21h 38m 06s
True Declination
0° 00' 00"
Sunlit
Object was in daylight at epoch
Visualization orbit readout
Latitude
Unknown
Longitude
Unknown
Altitude
Unknown
Speed
Unknown
Apparent Right ascension
Unknown
Apparent Declination
Unknown
Sunlit
N/A
Visualization observer readout
Local Sidereal Time
18:31:03
Azimuth
Unknown
Elevation
Unknown
Doppler factor
Unknown
Orbital elements
Apogee altitude
561.828 km
Perigee altitude
560.152 km
Semi-major axis
6,939.127 km
Eccentricity
0.00012
Inclination
43.005°
RAAN
324.5288°
Arg. of periapsis
270.8252°
True anomaly
89.25904°
Mean anomaly
89.2452°
Eccentric anomaly
89.25212°
Mean motion
3.75479 °/min
Orbital period
95.88 mins
BSTAR
0.000056158
Loading maneuver chart data...
Computing Atmospheric mass density...
Loading historical data...
Loading historical data...
Loading historical data...
Loading historical data...
Loading historical data...
Loading historical data...
Loading historical data...

Documentation

Showing up to 5 results
|